Location: Driftpile
(55.3500°N, 115.7667°W)
Time: 01:32:33
(UTC+00:00)

Envisat - Visible Passes

Search period start: 09 December 2021 00:00
Search period end: 19 December 2021 00:00
Orbit: 764 x 766 km, 98.2° (Epoch: 08 December)

Date Brightness Start Highest point End Pass type
(mag) Time Alt. Az. Time Alt. Az. Time Alt. Az.
09 Dec 4.7 00:25:23 10° SSW 00:30:05 37° W 00:34:49 10° NNW visible
09 Dec 4.0 12:26:09 10° NNE 12:31:04 46° E 12:35:56 10° S visible
09 Dec 3.5 14:05:23 10° N 14:10:01 36° WNW 14:14:38 10° SW visible
09 Dec 3.4 23:47:58 10° S 23:53:02 70° WSW 23:58:08 10° NNW visible
10 Dec 6.0 01:30:36 10° WSW 01:33:02 13° W 01:35:28 10° NW visible
10 Dec 5.1 11:49:40 10° NE 11:53:52 25° E 11:58:03 10° SE visible
10 Dec 2.9 13:28:16 10° N 13:33:20 64° WNW 13:38:21 10° SSW visible
10 Dec 4.5 15:08:30 10° NNW 15:11:29 16° NW 15:14:28 10° W visible
11 Dec 5.4 00:51:30 10° SW 00:55:38 25° W 00:59:47 10° NW visible
11 Dec 5.9 11:13:57 10° NE 11:16:30 14° E 11:19:02 10° ESE visible
11 Dec 3.2 12:51:21 10° NNE 12:56:28 71° ESE 13:01:32 10° S visible
11 Dec 3.9 14:30:58 10° N 14:35:06 26° NW 14:39:13 10° WSW visible
12 Dec 4.3 00:13:35 10° S 00:18:27 45° W 00:23:20 10° NNW visible
12 Dec 4.3 12:14:39 10° NNE 12:19:26 38° E 12:24:09 10° SSE visible
12 Dec 3.3 13:53:44 10° N 13:58:32 43° WNW 14:03:18 10° SW visible
13 Dec 5.9 01:18:09 10° WSW 01:21:17 16° W 01:24:26 10° NW visible
13 Dec 5.3 11:38:20 10° NE 11:42:10 21° E 11:46:00 10° SE visible
13 Dec 2.8 13:16:41 10° NNE 13:21:47 77° WNW 13:26:52 10° SSW visible
13 Dec 4.3 14:56:41 10° N 15:00:05 18° NW 15:03:29 10° W visible
14 Dec 5.1 00:39:32 10° SSW 00:43:57 29° W 00:48:24 10° NNW visible
14 Dec 6.0 11:03:17 10° ENE 11:04:44 11° E 11:06:10 10° E visible
14 Dec 3.5 12:39:49 10° NNE 12:44:52 59° E 12:49:53 10° S visible
14 Dec 3.7 14:19:16 10° N 14:23:38 30° WNW 14:28:00 10° WSW visible
15 Dec 3.9 00:01:51 10° S 00:06:50 54° W 00:11:50 10° NNW visible
15 Dec 6.4 01:46:42 10° W 01:47:02 10° W 01:47:23 10° WNW visible
15 Dec 4.6 12:03:12 10° NNE 12:07:46 32° E 12:12:17 10° SSE visible
15 Dec 3.1 13:42:05 10° N 13:47:02 51° WNW 13:51:56 10° SW visible
16 Dec 5.8 01:05:55 10° SW 01:09:34 20° W 01:13:13 10° NW visible
16 Dec 5.6 11:27:04 10° NE 11:30:28 18° E 11:33:50 10° SE visible
16 Dec 2.9 13:05:06 10° NNE 13:10:14 89° ESE 13:15:20 10° SSW visible
16 Dec 4.2 14:44:55 10° N 14:48:40 21° NW 14:52:25 10° W visible
17 Dec 4.8 00:27:39 10° SSW 00:32:17 35° W 00:36:58 10° NNW visible
17 Dec 3.8 12:28:19 10° NNE 12:33:15 49° E 12:38:11 10° S visible
17 Dec 3.5 14:07:35 10° N 14:12:10 35° WNW 14:16:44 10° SW visible
17 Dec 3.5 23:50:10 10° S 23:55:14 66° WSW 00:00:19 10° NNW visible
18 Dec 6.1 01:33:07 10° WSW 01:35:16 13° W 01:37:25 10° WNW visible
18 Dec 4.9 11:51:48 10° NE 11:56:05 27° E 12:00:22 10° SSE visible
18 Dec 2.9 13:30:28 10° N 13:35:30 61° WNW 13:40:30 10° SSW visible
18 Dec 4.5 15:10:45 10° NNW 15:13:37 15° NW 15:16:28 10° W visible
